Time,TemperatureF,DewpointF,PressureIn,WindDirection,WindDirectionDegrees,WindSpeedMPH,WindSpeedGustMPH,Humidity,HourlyPrecipIn,Conditions,Clouds,dailyrainin,SoftwareType,DateUTC
2013-08-09 00:08:00,75.0,72.0,29.97,SSW,198,0.0,0.0,91,0.00,,,0.00,weatherlink.com 1.10,2013-08-09 04:08:00,
2013-08-09 00:23:00,74.8,72.0,29.98,SSW,198,0.0,0.0,91,0.00,,,0.00,weatherlink.com 1.10,2013-08-09 04:23:00,
2013-08-09 00:38:00,74.4,72.0,29.98,SSW,198,0.0,0.0,91,0.00,,,0.00,weatherlink.com 1.10,2013-08-09 04:38:00,
2013-08-09 00:53:00,73.7,71.0,29.99,SSW,198,0.0,0.0,92,0.00,,,0.00,weatherlink.com 1.10,2013-08-09 04:53:00,
2013-08-09 01:08:00,73.2,71.0,29.98,SSW,198,0.0,0.0,93,0.00,,,0.00,weatherlink.com 1.10,2013-08-09 05:08:00,
2013-08-09 01:23:00,72.7,71.0,29.98,SSW,198,0.0,0.0,93,0.00,,,0.00,weatherlink.com 1.10,2013-08-09 05:23:00,
2013-08-09 01:38:00,72.4,71.0,29.98,SSW,198,0.0,0.0,94,0.00,,,0.00,weatherlink.com 1.10,2013-08-09 05:38:00,
2013-08-09 01:53:00,72.1,70.0,29.97,SSW,198,0.0,0.0,94,0.00,,,0.00,weatherlink.com 1.10,2013-08-09 05:53:00,
2013-08-09 02:08:00,71.9,70.0,29.97,SSW,198,0.0,0.0,94,0.00,,,0.00,weatherlink.com 1.10,2013-08-09 06:08:00,
2013-08-09 02:23:00,71.8,70.0,29.97,SSW,198,0.0,0.0,95,0.00,,,0.00,weatherlink.com 1.10,2013-08-09 06:23:00,
2013-08-09 02:38:00,71.7,70.0,29.97,SSW,198,0.0,0.0,95,0.00,,,0.00,weatherlink.com 1.10,2013-08-09 06:38:00,
2013-08-09 02:53:00,71.5,70.0,29.97,SSW,198,0.0,0.0,95,0.00,,,0.00,weatherlink.com 1.10,2013-08-09 06:53:00,
2013-08-09 03:09:00,71.4,70.0,29.97,SSW,198,0.0,0.0,95,0.00,,,0.00,weatherlink.com 1.10,2013-08-09 07:09:00,
2013-08-09 03:24:00,71.3,70.0,29.97,SSW,198,0.0,0.0,95,0.00,,,0.00,weatherlink.com 1.10,2013-08-09 07:24:00,
2013-08-09 03:39:00,71.3,70.0,29.98,SSW,198,0.0,0.0,95,0.00,,,0.00,weatherlink.com 1.10,2013-08-09 07:39:00,
2013-08-09 03:54:00,71.4,70.0,29.97,SSW,198,0.0,0.0,95,0.00,,,0.00,weatherlink.com 1.10,2013-08-09 07:54:00,
2013-08-09 04:09:00,71.3,70.0,29.97,SSW,198,0.0,0.0,95,0.00,,,0.00,weatherlink.com 1.10,2013-08-09 08:09:00,
2013-08-09 04:25:00,71.5,70.0,29.97,SSW,198,0.0,0.0,96,0.00,,,0.00,weatherlink.com 1.10,2013-08-09 08:25:00,
2013-08-09 04:39:00,72.1,71.0,29.97,SSW,198,0.0,0.0,96,0.00,,,0.00,weatherlink.com 1.10,2013-08-09 08:39:00,
2013-08-09 04:54:00,71.9,71.0,29.97,SSW,198,0.0,0.0,95,0.00,,,0.00,weatherlink.com 1.10,2013-08-09 08:54:00,
2013-08-09 05:09:00,71.6,70.0,29.98,SSW,198,0.0,0.0,95,0.00,,,0.00,weatherlink.com 1.10,2013-08-09 09:09:00,
2013-08-09 05:24:00,71.4,70.0,29.97,SSW,198,0.0,0.0,95,0.00,,,0.00,weatherlink.com 1.10,2013-08-09 09:24:00,
2013-08-09 05:39:00,71.4,70.0,29.98,SSW,198,0.0,0.0,95,0.00,,,0.00,weatherlink.com 1.10,2013-08-09 09:39:00,
2013-08-09 05:54:00,71.2,70.0,29.98,SSW,198,0.0,0.0,95,0.00,,,0.00,weatherlink.com 1.10,2013-08-09 09:54:00,
2013-08-09 06:09:00,71.3,70.0,29.99,SSW,198,0.0,0.0,96,0.00,,,0.00,weatherlink.com 1.10,2013-08-09 10:09:00,
2013-08-09 06:24:00,71.2,70.0,29.99,SSW,198,0.0,0.0,95,0.00,,,0.00,weatherlink.com 1.10,2013-08-09 10:24:00,
2013-08-09 06:39:00,70.8,69.0,29.99,SSW,198,0.0,0.0,95,0.00,,,0.00,weatherlink.com 1.10,2013-08-09 10:39:00,
2013-08-09 06:54:00,71.1,70.0,29.99,SSW,198,0.0,0.0,96,0.00,,,0.00,weatherlink.com 1.10,2013-08-09 10:54:00,
2013-08-09 07:09:00,71.2,70.0,30.00,SSW,198,0.0,0.0,96,0.00,,,0.00,weatherlink.com 1.10,2013-08-09 11:09:00,
2013-08-09 07:24:00,71.4,70.0,30.00,SSW,198,0.0,0.0,96,0.00,,,0.00,weatherlink.com 1.10,2013-08-09 11:24:00,
2013-08-09 07:39:00,72.2,71.0,30.00,SSW,198,0.0,0.0,95,0.00,,,0.00,weatherlink.com 1.10,2013-08-09 11:39:00,
2013-08-09 07:54:00,73.0,71.0,30.00,SSW,205,0.0,0.0,94,0.00,,,0.00,weatherlink.com 1.10,2013-08-09 11:54:00,
2013-08-09 08:09:00,73.8,72.0,30.00,SSW,200,0.0,0.0,93,0.00,,,0.00,weatherlink.com 1.10,2013-08-09 12:09:00,
2013-08-09 08:24:00,74.9,73.0,30.01,WSW,240,0.0,0.0,92,0.00,,,0.00,weatherlink.com 1.10,2013-08-09 12:24:00,
2013-08-09 08:39:00,75.4,72.0,30.01,SW,228,0.0,0.0,90,0.00,,,0.00,weatherlink.com 1.10,2013-08-09 12:39:00,
2013-08-09 08:54:00,75.9,73.0,30.01,West,279,0.0,0.0,90,0.00,,,0.00,weatherlink.com 1.10,2013-08-09 12:54:00,
2013-08-09 09:09:00,77.2,74.0,30.01,WSW,240,0.0,0.0,90,0.00,,,0.00,weatherlink.com 1.10,2013-08-09 13:09:00,
2013-08-09 09:24:00,78.2,74.0,30.01,SSE,164,0.0,0.0,87,0.00,,,0.00,weatherlink.com 1.10,2013-08-09 13:24:00,
2013-08-09 09:39:00,79.0,75.0,30.01,WSW,251,0.0,0.0,86,0.00,,,0.00,weatherlink.com 1.10,2013-08-09 13:39:00,
2013-08-09 09:54:00,79.6,76.0,30.02,West,277,0.0,0.0,87,0.00,,,0.00,weatherlink.com 1.10,2013-08-09 13:54:00,
2013-08-09 10:09:00,80.4,76.0,30.02,SW,214,0.0,0.0,85,0.00,,,0.00,weatherlink.com 1.10,2013-08-09 14:09:00,
2013-08-09 10:24:00,81.3,76.0,30.02,SW,219,0.0,0.0,83,0.00,,,0.00,weatherlink.com 1.10,2013-08-09 14:24:00,
2013-08-09 10:39:00,81.8,76.0,30.01,SW,225,0.0,0.0,83,0.00,,,0.00,weatherlink.com 1.10,2013-08-09 14:39:00,
2013-08-09 10:54:00,82.1,75.0,30.01,WSW,244,0.0,0.0,80,0.00,,,0.00,weatherlink.com 1.10,2013-08-09 14:54:00,
2013-08-09 11:09:00,82.6,76.0,30.01,SSE,168,0.0,0.0,79,0.00,,,0.00,weatherlink.com 1.10,2013-08-09 15:09:00,
2013-08-09 11:24:00,82.9,76.0,30.02,SSW,208,0.0,0.0,79,0.00,,,0.00,weatherlink.com 1.10,2013-08-09 15:24:00,
2013-08-09 11:39:00,83.1,76.0,30.02,South,184,0.0,0.0,78,0.00,,,0.00,weatherlink.com 1.10,2013-08-09 15:39:00,
2013-08-09 11:54:00,83.4,76.0,30.02,WSW,252,0.0,0.0,78,0.00,,,0.00,weatherlink.com 1.10,2013-08-09 15:54:00,
2013-08-09 12:09:00,83.7,76.0,30.01,SSW,208,0.0,0.0,77,0.00,,,0.00,weatherlink.com 1.10,2013-08-09 16:09:00,
2013-08-09 12:24:00,84.4,75.0,30.00,SW,231,0.0,0.0,74,0.00,,,0.00,weatherlink.com 1.10,2013-08-09 16:24:00,
2013-08-09 12:39:00,85.0,77.0,30.00,WSW,244,0.0,0.0,76,0.00,,,0.00,weatherlink.com 1.10,2013-08-09 16:39:00,
2013-08-09 12:54:00,85.4,75.0,29.99,SW,214,0.0,0.0,72,0.00,,,0.00,weatherlink.com 1.10,2013-08-09 16:54:00,
2013-08-09 13:09:00,86.0,76.0,29.99,SW,215,0.0,0.0,71,0.00,,,0.00,weatherlink.com 1.10,2013-08-09 17:09:00,
2013-08-09 13:24:00,86.6,77.0,29.98,SSW,202,0.0,0.0,72,0.00,,,0.00,weatherlink.com 1.10,2013-08-09 17:24:00,
2013-08-09 13:39:00,86.4,76.0,29.98,SW,225,0.0,0.0,70,0.00,,,0.00,weatherlink.com 1.10,2013-08-09 17:39:00,
2013-08-09 13:54:00,86.5,76.0,29.98,SW,219,0.0,0.0,71,0.00,,,0.00,weatherlink.com 1.10,2013-08-09 17:54:00,
2013-08-09 14:09:00,87.4,76.0,29.98,SSW,198,0.0,0.0,68,0.00,,,0.00,weatherlink.com 1.10,2013-08-09 18:09:00,
2013-08-09 14:25:00,87.0,75.0,29.97,SW,232,0.0,0.0,68,0.00,,,0.00,weatherlink.com 1.10,2013-08-09 18:25:00,
2013-08-09 14:40:00,86.9,76.0,29.97,SW,223,0.0,0.0,71,0.00,,,0.00,weatherlink.com 1.10,2013-08-09 18:40:00,
2013-08-09 14:55:00,87.6,76.0,29.97,SW,217,0.0,0.0,69,0.00,,,0.00,weatherlink.com 1.10,2013-08-09 18:55:00,
2013-08-09 15:10:00,87.5,76.0,29.97,SW,225,0.0,0.0,68,0.00,,,0.00,weatherlink.com 1.10,2013-08-09 19:10:00,
2013-08-09 15:25:00,85.7,75.0,29.97,SSW,207,0.0,0.0,70,0.00,,,0.00,weatherlink.com 1.10,2013-08-09 19:25:00,
2013-08-09 15:40:00,83.8,75.0,29.98,NW,311,0.0,0.0,75,0.00,,,0.00,weatherlink.com 1.10,2013-08-09 19:40:00,
2013-08-09 15:55:00,81.6,74.0,29.97,West,269,0.0,0.0,77,0.00,,,0.00,weatherlink.com 1.10,2013-08-09 19:55:00,
2013-08-09 16:10:00,81.5,74.0,29.96,WNW,283,0.0,0.0,77,0.00,,,0.00,weatherlink.com 1.10,2013-08-09 20:10:00,
2013-08-09 16:25:00,82.3,74.0,29.97,West,281,0.0,0.0,75,0.00,,,0.00,weatherlink.com 1.10,2013-08-09 20:25:00,
2013-08-09 16:40:00,82.8,74.0,29.97,West,265,0.0,0.0,74,0.00,,,0.00,weatherlink.com 1.10,2013-08-09 20:40:00,
2013-08-09 16:55:00,82.2,73.0,29.97,SW,231,0.0,0.0,74,0.00,,,0.00,weatherlink.com 1.10,2013-08-09 20:55:00,
2013-08-09 17:10:00,80.8,73.0,29.98,SSW,203,0.0,0.0,77,0.00,,,0.00,weatherlink.com 1.10,2013-08-09 21:10:00,
2013-08-09 17:25:00,79.4,72.0,29.98,WSW,248,0.0,0.0,77,0.00,,,0.00,weatherlink.com 1.10,2013-08-09 21:25:00,
2013-08-09 17:40:00,78.2,71.0,29.97,SSW,213,0.0,0.0,79,0.00,,,0.00,weatherlink.com 1.10,2013-08-09 21:40:00,
2013-08-09 17:55:00,77.4,72.0,29.97,SSW,198,0.0,0.0,82,0.00,,,0.00,weatherlink.com 1.10,2013-08-09 21:55:00,
2013-08-09 18:10:00,76.7,72.0,29.98,SSW,206,0.0,0.0,84,0.00,,,0.00,weatherlink.com 1.10,2013-08-09 22:10:00,
2013-08-09 18:25:00,76.7,72.0,29.97,SSW,207,0.0,0.0,84,0.00,,,0.00,weatherlink.com 1.10,2013-08-09 22:25:00,
2013-08-09 18:40:00,76.7,72.0,29.97,SW,221,0.0,0.0,84,0.00,,,0.00,weatherlink.com 1.10,2013-08-09 22:40:00,
2013-08-09 18:55:00,77.2,72.0,29.98,SW,220,0.0,0.0,85,0.00,,,0.00,weatherlink.com 1.10,2013-08-09 22:55:00,
2013-08-09 19:10:00,77.5,72.0,29.97,South,188,0.0,0.0,84,0.00,,,0.00,weatherlink.com 1.10,2013-08-09 23:10:00,
2013-08-09 19:25:00,77.6,73.0,29.97,South,188,0.0,0.0,85,0.00,,,0.00,weatherlink.com 1.10,2013-08-09 23:25:00,
2013-08-09 19:40:00,77.5,73.0,29.98,WSW,247,0.0,0.0,86,0.00,,,0.00,weatherlink.com 1.10,2013-08-09 23:40:00,
2013-08-09 19:55:00,77.3,73.0,29.97,SW,217,0.0,0.0,86,0.00,,,0.00,weatherlink.com 1.10,2013-08-09 23:55:00,
2013-08-09 20:10:00,77.0,73.0,29.97,SW,217,0.0,0.0,87,0.00,,,0.00,weatherlink.com 1.10,2013-08-10 00:10:00,
2013-08-09 20:25:00,76.5,72.0,29.97,SW,219,0.0,0.0,87,0.00,,,0.00,weatherlink.com 1.10,2013-08-10 00:25:00,
2013-08-09 20:40:00,76.1,73.0,29.99,SW,219,0.0,0.0,89,0.00,,,0.00,weatherlink.com 1.10,2013-08-10 00:40:00,
2013-08-09 20:55:00,75.8,72.0,29.99,SSW,205,0.0,0.0,89,0.00,,,0.00,weatherlink.com 1.10,2013-08-10 00:55:00,
2013-08-09 21:10:00,75.5,73.0,30.00,SSW,199,0.0,0.0,90,0.00,,,0.00,weatherlink.com 1.10,2013-08-10 01:10:00,
2013-08-09 21:25:00,75.4,72.0,30.01,SSW,199,0.0,0.0,90,0.00,,,0.00,weatherlink.com 1.10,2013-08-10 01:25:00,
2013-08-09 21:40:00,74.6,72.0,30.02,SSW,199,0.0,0.0,91,0.00,,,0.00,weatherlink.com 1.10,2013-08-10 01:40:00,
2013-08-09 21:55:00,74.3,72.0,30.02,SSW,199,0.0,0.0,92,0.00,,,0.00,weatherlink.com 1.10,2013-08-10 01:55:00,
2013-08-09 22:10:00,74.4,72.0,30.02,SSW,199,0.0,0.0,92,0.00,,,0.00,weatherlink.com 1.10,2013-08-10 02:10:00,
2013-08-09 22:25:00,74.4,72.0,30.03,SSW,199,0.0,0.0,92,0.00,,,0.00,weatherlink.com 1.10,2013-08-10 02:25:00,
2013-08-09 22:40:00,74.1,72.0,30.03,SSW,199,0.0,0.0,92,0.00,,,0.00,weatherlink.com 1.10,2013-08-10 02:40:00,
2013-08-09 22:55:00,74.0,72.0,30.02,SSW,199,0.0,0.0,92,0.00,,,0.00,weatherlink.com 1.10,2013-08-10 02:55:00,
2013-08-09 23:10:00,74.0,72.0,30.02,SSW,199,0.0,0.0,92,0.00,,,0.00,weatherlink.com 1.10,2013-08-10 03:10:00,
2013-08-09 23:25:00,73.6,71.0,30.02,SSW,199,0.0,0.0,92,0.00,,,0.00,weatherlink.com 1.10,2013-08-10 03:25:00,
2013-08-09 23:40:00,73.4,71.0,30.02,SSW,199,0.0,0.0,93,0.00,,,0.00,weatherlink.com 1.10,2013-08-10 03:40:00,
2013-08-09 23:55:00,73.1,71.0,30.02,SSW,199,0.0,0.0,94,0.00,,,0.00,weatherlink.com 1.10,2013-08-10 03:55:00,